Regional Weather Roundup
Issued by NWS Wakefield, VA

Home | Current Version | Previous Version | Text Only | Print | Product List | Glossary Off
Versions: 1 2 3 4 5 6 7 8 9 10 11 12 13 14 15 16 17 18 19 20 21 22 23 24 25 26 27 28 29 30 31 32 33 34 35 36 37 38 39 40 41 42 43 44 45 46 47 48 49 50

000
ASUS41 KAKQ 260410
RWRAKQ

REGIONAL WEATHER ROUNDUP
NATIONAL WEATHER SERVICE WAKEFIELD VA
1100 PM EST SUN JAN 25 2015

Note: "fair" indicates few or no clouds below 12,000 feet with no
significant weather and/or obstructions to visibility. * = Denotes
station may not report precipitation (e.g., rain,snow,etc.),
thunder or fog.

VAZ042-051-052>054-056-260500-
NORTHERN VIRGINIA

CITY           SKY/WX    TMP DP  RH WIND       PRES   REMARKS
WASH NATIONAL  CLOUDY    46  32  58 S6        29.86S
DULLES         CLOUDY    43  31  62 SE3       29.83S
FORT BELVOIR   CLOUDY    41  33  73 VRB1      29.85S
QUANTICO       CLOUDY    42  33  70 CALM      29.86S
FREDERICKSBRG* CLOUDY    36  34  91 SE6       29.83F
STAFFORD*      CLOUDY    37  37 100 CALM      29.87F
WARRENTON      CLOUDY    40  38  93 NE5       29.82S
CULPEPER*      CLOUDY    37  36  93 CALM      29.82F
MANASSAS*      CLOUDY    41  36  81 CALM      29.84S
LEESBURG*      CLOUDY    41  37  87 CALM      29.84F
WINCHESTER     CLOUDY    37  32  81 CALM      29.81F
FRONT ROYAL*   FAIR      36  32  87 CALM      29.79F
LURAY*         MOCLDY    34  34 100 CALM      29.79F
$$

VAZ048-049-060>072-079>083-260500-
CENTRAL AND SOUTH CENTRAL VIRGINIA

CITY           SKY/WX    TMP DP  RH WIND       PRES   REMARKS
RICHMOND       CLOUDY    42  36  79 SE8       29.84F
CHESTERFIELD*  FAIR      43  27  52 SE7       29.85S
PETERSBURG*    CLOUDY    42  34  73 SE3       29.85F
HANOVER        CLOUDY    40  33  76 E5        29.85F
TAPPAHANNOCK*  CLOUDY    40  30  67 CALM      29.87S
QUINTON*       FAIR      42  33  73 SE3       29.86S
CHARLOTTSVILLE MOCLDY    37  31  78 N3        29.80S
GORDONSVILLE*  FAIR      33  31  95 CALM      29.81S
ORANGE*        CLOUDY    36  34  93 CALM      29.83F
LOUISA*        MOCLDY    41  34  75 CALM      29.80S
BUMPASS*       FAIR      41  33  72 E8        29.81F
FARMVILLE*     CLOUDY    44  35  69 S5        29.80S
CREWE*         MOCLDY    43  33  68 S7        29.81F
FORT PICKETT*  FAIR      42  34  72 S8        29.82F
CHASE CITY*    FAIR      45  37  76 SE6       29.82R
CLARKSVILLE*   FAIR      43  34  70 S6        29.82R
SOUTH HILL*    CLOUDY    42  33  72 S8        29.89S
LAWRENCEVILLE* FAIR      41  34  76 CALM      29.84S
EMPORIA*       CLOUDY    36  32  87 SE5       29.87S
$$

VAZ088>098-260500-
SOUTHEAST VIRGINIA

CITY           SKY/WX    TMP DP  RH WIND       PRES   REMARKS
NORFOLK        MOCLDY    40  32  73 SE5       29.88S
VIRGINIA BEACH MOCLDY    42  34  73 S6        29.88F
NORFOLK NAVAL  CLOUDY    44  33  65 S6        29.89S
WEST POINT*    CLOUDY    43  33  66 SE5       29.89R
SALUDA*        FAIR      40  34  77 S10       29.88S
NEWPORT NEWS   CLOUDY    44  33  65 S6        29.88R
LANGLEY AFB    CLOUDY    41  33  74 S2        29.89R
FORT EUSTIS    CLOUDY    41  36  82 S5        29.86R
WILLIAMSBURG*    N/A     43  37  81 S3        29.89S
HR EXEC AP*    FAIR      39  30  70 S3        29.90S
FRANKLIN*      CLOUDY    38  33  84 S3        29.89R
WAKEFIELD      CLOUDY    40  34  79 CALM      29.87S
$$

VAZ020-022-025-037-045-260500-
WEST CENTRAL AND SOUTHWEST VIRGINIA

CITY           SKY/WX    TMP DP  RH WIND       PRES   REMARKS
STAUNTON*      CLOUDY    35  31  87 CALM      29.79S
WAYNESBORO*    CLOUDY    41  32  70 S7        29.76S
HOT SPRINGS VA CLOUDY    34  30  86 S6        29.67F
LYNCHBURG      CLOUDY    44  33  65 SE9       29.78S
DANVILLE       CLOUDY    46  32  58 VRB5      29.79S
SOUTH BOSTON*  MOCLDY    44  32  63 CALM      29.81S
MARTINSVILLE   CLOUDY    45  34  65 CALM      29.78S
ROANOKE        MOCLDY    44  30  57 SE6       29.76F
BLACKSBURG     CLOUDY    37  29  74 E6        29.75F
DUBLIN*        CLOUDY    39  32  75 CALM      29.72F
MARION*        CLOUDY    44  28  54 CALM      29.71F
HILLSVILLE*    CLOUDY    41  29  62 S6        29.70F
RICHLANDS*     CLOUDY    42  27  53 SW3       29.67F
WISE*          LGT RAIN  41  32  70 S12       29.67S
ABINGDON*      CLOUDY    45  32  61 CALM      29.68F
$$

MDZ021>025-VAZ099-100-260500-
SOUTHERN MARYLAND AND THE DELMARVA PENINSULA

CITY           SKY/WX    TMP DP  RH WIND       PRES   REMARKS
PATUXENT RIVER CLOUDY    41  34  76 SE8       29.86F
BAY BRIDGE APT   N/A     43  30  61 SE7       29.88F
LEONARDTOWN    CLOUDY    41  32  70 SE5       29.88S
DOVER          CLOUDY    38  37  92 VRB3      29.92R
GEORGETOWN     CLOUDY    41  31  67 S6        29.91R
EASTON         CLOUDY    43  33  68 SE6       29.91F
CAMBRIDGE      CLOUDY    43  32  65 SE8       29.88F
SALISBURY      CLOUDY    42  34  73 SE6       29.90S
OCEAN CITY     CLOUDY    39  36  89 CALM      29.92S
WALLOPS ISLAND CLOUDY    40  37  89 S7        29.92R
ACCOMACK*      CLOUDY    41  34  75 S6        29.90S
$$

NCZ012>017-030>032-260500-
NORTH CENTRAL AND EASTERN NORTH CAROLINA

CITY           SKY/WX    TMP DP  RH WIND       PRES   REMARKS
ROANOKE RAPIDS FAIR      41  34  75 SE3       29.86F
RALEIGH        MOCLDY    44  32  62 S7        29.83S
ELIZABETH CITY CLEAR     39  35  86 SE5       29.88F
AHOSKIE*       CLOUDY    35  32  91 CALM      29.88S
EDENTON*       CLEAR     39  35  85 CALM      29.88F
CURRITUCK*     CLEAR     39  33  81 CALM      29.89F
KILL DEVIL HLS CLEAR     40  36  83 SE3       29.88F
MANTEO         CLEAR     36  34  93 CALM      29.90S
CAPE HATTERAS  PTCLDY    47  42  83 NE6       29.88F
TARBORO*       FAIR      35  33  93 CALM      29.88S
GOLDSBORO      CLEAR     36  35  99 SE2       29.84S
WASHINGTON     CLEAR     37  34  89 CALM      29.88S
GREENVILLE     CLEAR     36  34  93 CALM      29.90R
NEW BERN       CLEAR     36  31  82 CALM      29.88F
WILMINGTON     CLEAR     39  36  89 CALM      29.86R
$$

VAZ048-260500-
ELSEWHERE

CITY           SKY/WX    TMP DP  RH WIND       PRES   REMARKS
HARRISBURG PA  LGT SNOW  33  31  92 E7        29.89F FOG
BALTIMORE      CLOUDY    41  32  70 E9        29.86F
ANNAPOLIS      CLOUDY    41  32  70 E6        29.87F
ANDREWS AFB    CLOUDY    42  32  67 SE6       29.85R
PHILADELPHIA   FLURRIES  35  28  75 E10       29.96R
HENDERSON NC   MOCLDY    43  32  65 S8        29.82S
GREENSBORO     CLOUDY    45  34  65 S8        29.77S
ROCKY MOUNT    PTCLDY    37  33  85 CALM      29.86S
$$

VAZ100-260500-
MARINE

STATION/POSITION TIME  TEMP    WIND        PRES    WAVE   SWELL
                       AIR SEA DIR/SP/G            HT/PER HT/PER
                 (UTC) (F)     (DEG/KT/KT) (MB)    (FT/S) (FT/S)
BRANDYWINE LGT   0400   42 37   80/  6/  7 1013.2R
CAPE MAY NJ      0400   42 39   60/  1/  4 1012.8R
LEWES DE         0400   41 38  190/  4/  5 1012.9R
15NM E FENWICK I 0400   43 42              1013.0R   3/11
OCEAN-CITY-INLET 0400          230/  3/  3 1012.8R
WACHAPREAGUE VA  0400   41 42  210/  2/  4 1012.5R
THOMAS POINT MD  0400   41 37  130/  7/  8 1012.6F
GOOSES REEF MD   0400   40     VRB 14/ 16  1010.3F
COVE POINT MD    0400   39     170/ 10/ 11 1011.3S
SOLOMONS ISLAND  0400      39                N/A
BISHOPS HEAD MD  0400   40 39  150/  9/ 11 1011.3S
PINEY POINT MD   0400          150/  7/  8   N/A
POTOMAC MD       0400   41     160/ 10/ 12 1010.6F
CAMBRIDGE MD     0400   42 37  150/  7/ 10 1011.6F
LEWISETTA VA     0400   42 39  180/  6/  7 1011.2R
RAPPAHANNOCK LGT 0400          150/ 11/ 12 1012.4F
STINGRAY PT      0400   41     180/ 10/ 12 1012.5S
YORK RVR RNG VA  0400   42     160/ 11/ 12 1011.0F
YORKTOWN VA      0400   42 41  150/  2/  4 1011.5F
JAMESTOWN VA     0400   41     170/  6/  6   N/A
DOMINION TERM VA 0400   42     170/  7/  8 1011.6F
KIPTOPEKE VA     0400      45  160/ 10/ 12   N/A
CHES BAY BRIDGE  0400          140/  9/ 10 1011.5S
CAPE HENRY VA    0400   42     160/  7/  9 1010.7S
CHESAPEAKE LGHT  0300   45     170/ 14/ 15 1013.0F
WILLOUBY STN VA  0400   42     150/  8/ 10 1012.0S
S CRANEY ISL VA  0400          210/  5/  8 1011.5F
CAPE HENRY BUOY  0400      45                N/A     3/ 9   2/11
1ST LANDING BUOY 0400   42     150/  8/ 10 1011.6S
CAPE CHARLES BUO 0400      43                N/A     3/11   2/11
OFFSHORE WE BUOY 0400      47                N/A     3/ 9   2/ 9
64NM E OF VA BCH 0400   49 53  210/  8/ 12 1012.6S   3/10   3/10
DUCK PIER NC     0400   43 44  130/  6/  6 1011.3F
44100 DUCK FRF   0400      45                N/A     2/11   2/11
44056 DUCK FRF   0400      43                N/A     2/ 8   2/11
OREGON INLET NC  0400   43 47   70/  3/  3 1012.4S
HATTERAS NC      0400           20/  1/  3 1012.1F



USA.gov is the U.S. government's official web portal to all federal, state and local government web resources and services.